This is the latest recevied weather packets stored in our database for station/object KB0BS-13. If no packets are shown the sender has not sent any weather packets the latest 10 day(s).
| Time | Temp. | Humidity | Pressure | Rain* | Wind** | Luminosity | Snow |
|---|---|---|---|---|---|---|---|
| 1777386748 | 7.78° C | 99% | 1003 hPa | 0 mm | - | 41 W/m² | - |
| 1777386446 | 7.78° C | 99% | 1003 hPa | 0 mm | - | 41 W/m² | - |
| 1777386142 | 7.78° C | 99% | 1002.8 hPa | 1.27 mm | - | 37 W/m² | - |
| 1777385839 | 7.78° C | 99% | 1002.6 hPa | 1.27 mm | - | 40 W/m² | - |
| 1777385536 | 7.78° C | 99% | 1002.5 hPa | 0 mm | - | 51 W/m² | - |
| 1777385233 | 8.89° C | 99% | 1002.3 hPa | 1.78 mm | - | 31 W/m² | - |
| 1777384928 | 8.89° C | 99% | 1002.1 hPa | 1.78 mm | - | 61 W/m² | - |
| 1777384627 | 8.89° C | 99% | 1002.1 hPa | 0 mm | - | 57 W/m² | - |
| 1777384326 | 8.89° C | 99% | 1001.9 hPa | 0 mm | - | 69 W/m² | - |
| 1777384022 | 8.89° C | 99% | 1001.7 hPa | 0 mm | - | 35 W/m² | - |
| 1777383717 | 8.89° C | 99% | 1001.6 hPa | 0 mm | - | 33 W/m² | - |
| 1777383414 | 8.89° C | 99% | 1001.6 hPa | 0 mm | - | 57 W/m² | - |
| 1777383110 | 9.44° C | 99% | 1001.7 hPa | 0 mm | - | 47 W/m² | - |
| 1777382808 | 9.44° C | 99% | 1001.4 hPa | 0 mm | - | 34 W/m² | - |
| 1777382503 | 9.44° C | 99% | 1001.4 hPa | 0 mm | - | 31 W/m² | - |
| 1777382199 | 10° C | 99% | 1001 hPa | 0 mm | - | 31 W/m² | - |
| 1777381896 | 10° C | 99% | 1001 hPa | 0 mm | - | 30 W/m² | - |
| 1777381595 | 10.56° C | 99% | 1000.8 hPa | 0 mm | - | 23 W/m² | - |
| 1777381292 | 10.56° C | 99% | 1000.4 hPa | 0 mm | - | 33 W/m² | - |
| 1777380989 | 10.56° C | 99% | 1000.5 hPa | 0 mm | - | 32 W/m² | - |
| 1777380685 | 10.56° C | 99% | 1000.4 hPa | 0 mm | - | 29 W/m² | - |
| 1777380381 | 10.56° C | 99% | 1000.4 hPa | 0 mm | - | 26 W/m² | - |
| 1777380078 | 10.56° C | 99% | 1000.4 hPa | 0 mm | - | 26 W/m² | - |
| 1777379774 | 10.56° C | 99% | 1000.1 hPa | 0 mm | - | 25 W/m² | - |
| 1777379469 | 11.11° C | 99% | 1000.2 hPa | 0 mm | - | 18 W/m² | - |
* Rain latest hour (hover to see other rain measurements)
** Current wind speed in m/s (hover to see current wind gust speed)